| time (UTC) | temp F | wind direction | speed knots | gust knots | rain 1hr in | rain 24hr in | rain mn in | humidity % | barometer mb |
| 20260505111804 | 53 | 0 | 0.0 | 0.0 | 0.00 | 0.00 | 0.00 | 88 | 1016.6 |
| 20260505110925 | 52 | 0 | 0.0 | 0.0 | 0.00 | 0.00 | 0.00 | 89 | 1016.5 |
| 20260505101804 | 52 | 0 | 0.0 | 0.0 | 0.00 | 0.00 | 0.00 | 87 | 1016.0 |
| 20260505100904 | 52 | 0 | 0.0 | 0.0 | 0.00 | 0.00 | 0.00 | 87 | 1015.8 |
| 20260505100004 | 52 | 0 | 0.0 | 0.0 | 0.00 | 0.00 | 0.00 | 86 | 1015.8 |
| 20260505095404 | 52 | 144 | 0.0 | 0.9 | 0.00 | 0.00 | 0.00 | 86 | 1015.6 |
| 20260505094504 | 52 | 0 | 0.0 | 0.0 | 0.00 | 0.00 | 0.00 | 86 | 1015.7 |
| 20260505093604 | 52 | 0 | 0.0 | 0.0 | 0.00 | 0.00 | 0.00 | 86 | 1015.6 |
| 20260505092704 | 53 | 0 | 0.0 | 0.0 | 0.00 | 0.00 | 0.00 | 85 | 1015.6 |
| 20260505091804 | 53 | 0 | 0.0 | 0.0 | 0.00 | 0.00 | 0.00 | 86 | 1015.6 |
| 20260505090925 | 53 | 0 | 0.0 | 0.0 | 0.00 | 0.00 | 0.00 | 84 | 1015.5 |
| 20260505090004 | 53 | 0 | 0.0 | 0.0 | 0.00 | 0.00 | 0.00 | 84 | 1015.5 |
| 20260505085404 | 53 | 0 | 0.0 | 0.0 | 0.00 | 0.00 | 0.00 | 83 | 1015.5 |
| 20260505084504 | 53 | 0 | 0.0 | 0.0 | 0.00 | 0.00 | 0.00 | 83 | 1015.4 |
| 20260505083604 | 54 | 0 | 0.0 | 0.0 | 0.00 | 0.00 | 0.00 | 83 | 1015.4 |
| 20260505082725 | 54 | 0 | 0.0 | 0.0 | 0.00 | 0.00 | 0.00 | 82 | 1015.4 |
| 20260505081825 | 54 | 0 | 0.0 | 0.0 | 0.00 | 0.00 | 0.00 | 81 | 1015.3 |
| 20260505080904 | 54 | 0 | 0.0 | 0.0 | 0.00 | 0.00 | 0.00 | 81 | 1015.3 |
| 20260505080004 | 55 | 0 | 0.0 | 0.0 | 0.00 | 0.00 | 0.00 | 79 | 1015.2 |
| 20260505075404 | 56 | 0 | 0.0 | 0.0 | 0.00 | 0.00 | 0.00 | 78 | 1015.1 |
| 20260505074504 | 56 | 144 | 0.0 | 0.9 | 0.00 | 0.00 | 0.00 | 76 | 1015.2 |
| 20260505073625 | 57 | 144 | 0.0 | 0.9 | 0.00 | 0.00 | 0.00 | 75 | 1015.1 |
| 20260505072704 | 58 | 142 | 0.0 | 0.9 | 0.00 | 0.00 | 0.00 | 74 | 1015.0 |
| 20260505071825 | 58 | 0 | 0.0 | 0.0 | 0.00 | 0.00 | 0.00 | 72 | 1015.0 |
| 20260505070904 | 59 | 0 | 0.0 | 0.0 | 0.00 | 0.00 | 0.00 | 71 | 1015.0 |
| 20260505070004 | 59 | 146 | 0.0 | 0.9 | 0.00 | 0.00 | 0.00 | 69 | 1014.9 |
| 20260505065404 | 60 | 161 | 0.0 | 0.9 | 0.00 | 0.00 | 0.00 | 69 | 1015.0 |
| 20260505064504 | 60 | 181 | 0.0 | 0.9 | 0.00 | 0.00 | 0.00 | 68 | 1015.0 |
| 20260505063604 | 60 | 222 | 0.0 | 0.9 | 0.00 | 0.00 | 0.00 | 67 | 1015.0 |
| 20260505062704 | 61 | 161 | 0.0 | 2.6 | 0.00 | 0.00 | 0.00 | 67 | 1015.0 |
| 20260505061825 | 61 | 163 | 0.0 | 2.6 | 0.00 | 0.00 | 0.00 | 67 | 1014.9 |
| 20260505060904 | 61 | 185 | 0.0 | 1.7 | 0.00 | 0.00 | 0.00 | 66 | 1015.0 |
| 20260505060004 | 61 | 167 | 0.0 | 3.5 | 0.00 | 0.00 | 0.00 | 67 | 1015.0 |
| 20260505055404 | 61 | 177 | 0.0 | 2.6 | 0.00 | 0.00 | 0.00 | 66 | 1015.0 |
| 20260505054504 | 61 | 180 | 0.0 | 2.6 | 0.00 | 0.00 | 0.00 | 66 | 1015.0 |
| 20260505053603 | 62 | 180 | 0.0 | 3.5 | 0.00 | 0.00 | 0.00 | 66 | 1015.1 |
| 20260505052704 | 62 | 171 | 0.0 | 1.7 | 0.00 | 0.00 | 0.00 | 66 | 1015.2 |
| 20260505051825 | 62 | 182 | 0.9 | 4.3 | 0.00 | 0.00 | 0.00 | 66 | 1015.3 |
| 20260505050925 | 62 | 202 | 0.0 | 1.7 | 0.00 | 0.00 | 0.00 | 66 | 1015.3 |
| 20260505040904 | 63 | 175 | 0.0 | 2.6 | 0.00 | 0.00 | 0.00 | 64 | 1015.2 |
| 20260505040005 | 63 | 177 | 0.0 | 3.5 | 0.00 | 0.00 | 0.00 | 64 | 1015.3 |
| 20260505035404 | 64 | 189 | 0.9 | 3.5 | 0.00 | 0.00 | 0.00 | 64 | 1015.3 |
| 20260505034504 | 64 | 174 | 0.9 | 6.1 | 0.00 | 0.00 | 0.00 | 63 | 1015.2 |
| 20260505033625 | 64 | 166 | 0.9 | 5.2 | 0.00 | 0.00 | 0.00 | 63 | 1015.2 |
| 20260505032704 | 64 | 162 | 0.0 | 3.5 | 0.00 | 0.00 | 0.00 | 63 | 1015.2 |
| 20260505031825 | 65 | 164 | 0.9 | 4.3 | 0.00 | 0.00 | 0.00 | 63 | 1015.1 |
| 20260505030904 | 65 | 160 | 0.9 | 4.3 | 0.00 | 0.00 | 0.00 | 62 | 1015.1 |
| 20260505030004 | 65 | 178 | 0.9 | 4.3 | 0.00 | 0.00 | 0.00 | 62 | 1015.2 |
| 20260505025404 | 65 | 173 | 0.9 | 5.2 | 0.00 | 0.00 | 0.00 | 62 | 1015.1 |
| 20260505024503 | 66 | 169 | 0.9 | 6.1 | 0.00 | 0.00 | 0.00 | 62 | 1015.2 |
| 20260505023604 | 66 | 174 | 0.9 | 5.2 | 0.00 | 0.00 | 0.00 | 61 | 1015.1 |
| 20260505022725 | 66 | 163 | 0.9 | 3.5 | 0.00 | 0.00 | 0.00 | 61 | 1015.1 |
| 20260505021825 | 67 | 162 | 0.9 | 3.5 | 0.00 | 0.00 | 0.00 | 60 | 1015.0 |
| 20260505020904 | 67 | 168 | 0.9 | 3.5 | 0.00 | 0.00 | 0.00 | 59 | 1015.0 |
| 20260505020004 | 67 | 164 | 1.7 | 3.5 | 0.00 | 0.00 | 0.00 | 58 | 1015.0 |
| 20260505015403 | 68 | 160 | 0.9 | 5.2 | 0.00 | 0.00 | 0.00 | 56 | 1014.9 |
| 20260505014525 | 68 | 170 | 0.9 | 5.2 | 0.00 | 0.00 | 0.00 | 54 | 1014.8 |
| 20260505013625 | 69 | 166 | 0.9 | 5.2 | 0.00 | 0.00 | 0.00 | 49 | 1014.7 |
| 20260505012704 | 69 | 162 | 0.9 | 2.6 | 0.00 | 0.00 | 0.00 | 45 | 1014.5 |
| 20260505011825 | 70 | 186 | 0.9 | 4.3 | 0.00 | 0.00 | 0.00 | 44 | 1014.3 |
| 20260505010925 | 70 | 189 | 0.0 | 2.6 | 0.00 | 0.00 | 0.00 | 44 | 1014.1 |
| 20260505010004 | 70 | 163 | 0.0 | 4.3 | 0.00 | 0.00 | 0.00 | 44 | 1014.1 |
| 20260505005404 | 70 | 161 | 0.0 | 4.3 | 0.00 | 0.00 | 0.00 | 43 | 1014.0 |
| 20260505004504 | 70 | 160 | 0.0 | 1.7 | 0.00 | 0.00 | 0.00 | 43 | 1013.8 |
| 20260505003604 | 71 | 157 | 0.0 | 2.6 | 0.00 | 0.00 | 0.00 | 42 | 1013.8 |
| 20260505002704 | 71 | 153 | 0.0 | 2.6 | 0.00 | 0.00 | 0.00 | 41 | 1013.7 |
| 20260505001804 | 72 | 154 | 0.0 | 2.6 | 0.00 | 0.00 | 0.00 | 41 | 1013.6 |
| 20260505000904 | 72 | 168 | 0.0 | 1.7 | 0.00 | 0.00 | 0.00 | 39 | 1013.6 |
| 20260505000004 | 73 | 159 | 0.0 | 2.6 | 0.00 | 0.00 | 0.00 | 38 | 1013.6 |
| 20260504235404 | 73 | 200 | 0.0 | 3.5 | 0.00 | 0.00 | 0.00 | 39 | 1013.6 |
| 20260504234504 | 74 | 164 | 0.0 | 1.7 | 0.00 | 0.00 | 0.00 | 39 | 1013.5 |
| 20260504233603 | 74 | 161 | 0.0 | 3.5 | 0.00 | 0.00 | 0.00 | 38 | 1013.3 |
| 20260504232704 | 75 | 163 | 0.9 | 2.6 | 0.00 | 0.00 | 0.00 | 36 | 1013.2 |
| 20260504231804 | 76 | 182 | 0.9 | 4.3 | 0.00 | 0.00 | 0.00 | 35 | 1013.2 |
| 20260504230904 | 76 | 205 | 0.9 | 5.2 | 0.00 | 0.00 | 0.00 | 34 | 1013.0 |
| 20260504230025 | 77 | 170 | 0.9 | 4.3 | 0.00 | 0.00 | 0.00 | 33 | 1013.0 |
| 20260504225404 | 78 | 158 | 0.0 | 4.3 | 0.00 | 0.00 | 0.00 | 34 | 1013.0 |
| 20260504224504 | 78 | 174 | 0.9 | 4.3 | 0.00 | 0.00 | 0.00 | 33 | 1013.0 |
| 20260504223604 | 79 | 176 | 0.9 | 5.2 | 0.00 | 0.00 | 0.00 | 31 | 1013.1 |
| 20260504222704 | 79 | 264 | 0.0 | 2.6 | 0.00 | 0.00 | 0.00 | 29 | 1013.0 |
| 20260504221803 | 80 | 210 | 0.9 | 3.5 | 0.00 | 0.00 | 0.00 | 28 | 1013.1 |
| 20260504220904 | 80 | 177 | 0.9 | 2.6 | 0.00 | 0.00 | 0.00 | 29 | 1013.0 |
| 20260504220004 | 80 | 186 | 0.9 | 4.3 | 0.00 | 0.00 | 0.00 | 30 | 1013.1 |
| 20260504215425 | 80 | 171 | 0.9 | 4.3 | 0.00 | 0.00 | 0.00 | 30 | 1013.1 |
| 20260504214504 | 81 | 205 | 0.9 | 3.5 | 0.00 | 0.00 | 0.00 | 29 | 1013.2 |
| 20260504213604 | 81 | 221 | 0.9 | 3.5 | 0.00 | 0.00 | 0.00 | 28 | 1013.2 |
| 20260504212704 | 81 | 201 | 0.9 | 5.2 | 0.00 | 0.00 | 0.00 | 28 | 1013.2 |
| 20260504211804 | 81 | 168 | 0.9 | 3.5 | 0.00 | 0.00 | 0.00 | 27 | 1013.2 |
| 20260504210904 | 80 | 164 | 0.9 | 3.5 | 0.00 | 0.00 | 0.00 | 27 | 1013.2 |
| 20260504210004 | 80 | 280 | 0.9 | 7.0 | 0.00 | 0.00 | 0.00 | 29 | 1013.2 |
| 20260504205404 | 81 | 237 | 0.9 | 4.3 | 0.00 | 0.00 | 0.00 | 29 | 1013.3 |
| 20260504204504 | 80 | 205 | 0.9 | 4.3 | 0.00 | 0.00 | 0.00 | 29 | 1013.4 |
| 20260504203604 | 81 | 204 | 0.9 | 4.3 | 0.00 | 0.00 | 0.00 | 30 | 1013.4 |
| 20260504202704 | 81 | 229 | 0.9 | 4.3 | 0.00 | 0.00 | 0.00 | 31 | 1013.5 |
| 20260504201804 | 80 | 243 | 0.9 | 6.1 | 0.00 | 0.00 | 0.00 | 29 | 1013.6 |
| 20260504200904 | 80 | 218 | 0.9 | 5.2 | 0.00 | 0.00 | 0.00 | 29 | 1013.7 |
| 20260504200004 | 80 | 239 | 0.9 | 4.3 | 0.00 | 0.00 | 0.00 | 29 | 1013.9 |
| 20260504195404 | 80 | 242 | 0.9 | 6.1 | 0.00 | 0.00 | 0.00 | 32 | 1013.9 |
| 20260504194504 | 80 | 209 | 1.7 | 6.1 | 0.00 | 0.00 | 0.00 | 29 | 1013.9 |
| 20260504193604 | 80 | 184 | 0.9 | 4.3 | 0.00 | 0.00 | 0.00 | 32 | 1013.9 |
| 20260504192704 | 80 | 168 | 0.9 | 6.1 | 0.00 | 0.00 | 0.00 | 30 | 1014.1 |
| 20260504191804 | 80 | 209 | 0.9 | 4.3 | 0.00 | 0.00 | 0.00 | 31 | 1014.2 |
| 20260504190904 | 80 | 226 | 0.9 | 3.5 | 0.00 | 0.00 | 0.00 | 34 | 1014.3 |
| 20260504190004 | 79 | 236 | 1.7 | 7.0 | 0.00 | 0.00 | 0.00 | 30 | 1014.5 |
| 20260504185403 | 79 | 223 | 1.7 | 7.0 | 0.00 | 0.00 | 0.00 | 30 | 1014.6 |
| 20260504184504 | 79 | 168 | 0.9 | 7.0 | 0.00 | 0.00 | 0.00 | 32 | 1014.8 |
| 20260504183604 | 78 | 172 | 1.7 | 4.3 | 0.00 | 0.00 | 0.00 | 32 | 1014.7 |
| 20260504182704 | 78 | 169 | 1.7 | 4.3 | 0.00 | 0.00 | 0.00 | 34 | 1014.8 |
| 20260504181804 | 78 | 219 | 0.9 | 7.0 | 0.00 | 0.00 | 0.00 | 32 | 1014.8 |
| 20260504180904 | 77 | 227 | 0.9 | 7.0 | 0.00 | 0.00 | 0.00 | 35 | 1014.8 |
| 20260504180004 | 78 | 192 | 0.9 | 7.8 | 0.00 | 0.00 | 0.00 | 34 | 1015.0 |
| 20260504175404 | 78 | 168 | 0.9 | 7.0 | 0.00 | 0.00 | 0.00 | 34 | 1015.0 |
| 20260504174504 | 77 | 215 | 0.9 | 4.3 | 0.00 | 0.00 | 0.00 | 34 | 1015.1 |
| 20260504173604 | 76 | 274 | 0.9 | 3.5 | 0.00 | 0.00 | 0.00 | 36 | 1015.3 |
| 20260504172704 | 76 | 273 | 0.9 | 5.2 | 0.00 | 0.00 | 0.00 | 37 | 1015.5 |
| 20260504171804 | 76 | 236 | 0.9 | 5.2 | 0.00 | 0.00 | 0.00 | 37 | 1015.7 |
| 20260504170904 | 76 | 242 | 1.7 | 6.1 | 0.00 | 0.00 | 0.00 | 35 | 1015.9 |
| 20260504140904 | 62 | 276 | 0.0 | 3.5 | 0.00 | 0.00 | 0.00 | 65 | 1017.1 |